SCP
1 1 0 0 0 0 0 0 0 0 0 0 1 0 0 0 0 0 1 1 1 1 1 1 1 1 1 1 1 1 1 1 1 1 1 1 2 2 2 2 2 3 2 2 2 2 1 1 1
1 0 0 0 0 0 0 0 0 0 0 0 1 0 0 0 1 1 1 1 1 1 1 1 1 1 1 1 1 1 1 1 1 1 1 1 2 2 2 2 3 3 3 2 2 1 1 1 1
1 1 1 1 1 0 0 0 0 0 0 0 1 1 0 1 1 1 1 1 1 1 1 1 1 1 1 1 1 1 1 1 1 1 1 1 2 2 2 2 3 3 2 2 2 1 1 1 1
1 1 1 1 1 1 0 0 0 0 0 0 1 1 1 1 1 1 1 1 1 1 1 1 1 1 1 1 1 1 1 1 1 1 1 1 2 2 2 3 3 3 2 2 2 1 1 1 1
1 1 1 1 1 0 0 0 0 0 0 1 1 1 1 1 1 1 1 1 0 1 1 1 1 1 1 1 1 1 1 1 1 1 1 1 2 2 2 3 3 2 2 2 2 1 1 1 1
1 1 1 1 0 0 0 0 0 0 1 1 1 1 1 1 1 1 1 1 1 1 1 1 1 1 1 1 1 1 1 1 1 1 1 1 2 2 2 2 2 2 1 1 1 1 1 1 1
2 2 1 1 0 0 0 0 0 0 1 1 1 1 1 1 1 1 1 1 1 1 1 1 1 1 1 1 1 1 1 1 1 1 1 1 1 2 2 2 2 2 1 1 1 1 1 1 1
2 2 1 1 0 0 0 0 0 0 1 1 1 1 1 1 1 1 1 1 1 1 1 1 1 1 1 1 1 1 1 1 1 1 1 1 1 1 1 1 2 1 1 1 1 1 1 1 1
2 2 1 1 0 0 0 0 0 1 1 1 1 1 1 1 1 1 1 1 1 1 1 1 1 1 1 1 1 1 1 1 1 1 1 1 1 1 1 1 1 1 1 1 1 1 1 1 1
1 1 1 1 0 0 0 0 0 1 1 1 1 1 1 1 1 1 2 1 1 1 1 1 1 1 1 1 0 1 1 1 1 1 1 1 1 1 1 1 1 1 1 1 1 1 1 1 1
1 1 1 1 0 0 1 1 1 1 1 1 1 1 1 1 1 1 2 2 1 1 1 0 1 1 1 1 0 0 0 1 1 1 1 1 1 1 1 1 1 1 1 1 1 1 1 1 1
1 1 1 1 0 0 1 1 1 1 0 1 1 1 1 1 1 1 2 2 1 1 1 1 1 1 1 1 1 1 1 1 1 1 1 1 1 1 1 1 1 1 1 1 1 1 1 1 1
1 1 1 0 0 0 1 1 1 0 0 1 1 1 1 1 1 1 2 2 1 1 1 1 1 1 1 1 1 1 1 1 1 1 1 1 1 1 1 1 1 1 1 1 1 1 1 1 0
0 0 0 0 0 0 0 1 1 1 1 1 1 1 1 1 1 2 2 2 2 1 1 1 1 1 1 1 1 1 1 1 1 1 1 1 0 1 1 1 1 1 1 1 1 1 1 0 0
0 0 0 0 0 0 0 0 1 1 1 1 1 1 1 1 2 3 2 2 1 1 1 1 1 1 0 0 0 1 1 1 1 0 0 0 0 1 1 1 1 1 0 0 0 0 0 0 0
0 0 0 0 0 0 0 0 1 1 1 1 1 1 1 2 3 3 2 1 1 1 1 1 1 1 1 1 1 1 1 1 1 0 0 0 1 1 1 1 1 0 0 0 0 0 0 0 0
0 0 0 0 0 0 0 0 1 1 1 1 1 1 2 3 3 2 1 1 1 1 2 2 1 1 1 1 1 1 1 1 1 1 0 0 1 1 1 1 1 0 0 0 0 0 0 1 1
0 0 0 0 0 0 0 0 0 1 1 1 1 2 2 2 2 2 1 1 1 1 2 2 2 1 1 1 1 1 1 1 1 1 1 1 1 1 1 1 1 1 1 1 1 1 1 1 1
0 0 0 0 0 0 0 0 0 1 1 1 1 2 2 1 1 1 1 1 1 1 2 2 2 2 2 1 1 1 1 1 1 1 1 1 1 1 1 1 1 1 1 1 1 1 1 1 1
0 0 0 0 0 0 0 0 0 1 1 1 1 1 1 1 2 2 1 1 1 2 2 3 3 3 2 2 1 1 1 1 1 1 1 1 1 1 1 1 1 1 1 1 1 1 1 1 1
0 0 0 0 0 0 0 0 0 1 1 1 1 1 1 1 2 2 2 2 2 2 3 3 4 4 3 2 2 1 1 1 1 1 1 1 1 2 1 1 1 1 1 1 1 1 1 1 1
0 0 0 0 0 0 0 0 0 1 1 1 1 1 1 1 2 2 2 2 3 3 4 4 5 4 4 3 2 2 1 1 1 1 1 1 1 1 1 1 1 1 1 1 1 1 1 1 1
0 0 0 0 0 0 0 0 0 0 1 1 1 2 2 3 3 3 3 3 3 4 5 5 5 5 4 3 2 2 1 1 1 1 1 1 1 1 1 1 1 1 2 2 1 1 1 1 1
0 0 0 0 0 0 0 0 0 0 1 1 2 3 3 4 4 4 3 3 3 4 5 5 5 6 5 4 3 2 2 1 1 1 1 1 1 1 1 1 1 1 2 2 2 1 1 1 1
0 0 0 0 0 0 0 0 1 2 3 3 3 3 3 4 4 4 3 3 3 4 4 4 5 5 5 4 3 2 2 2 2 1 1 1 1 1 1 1 1 1 1 2 2 1 1 1 1
0 0 0 0 0 0 0 0 1 3 5 4 2 2 3 3 3 3 2 3 3 3 4 4 4 5 5 4 3 2 2 2 2 1 1 1 1 1 1 2 2 2 2 2 2 2 1 1 1
0 0 0 0 0 0 0 0 1 3 4 3 2 2 2 2 2 2 2 2 3 3 4 5 5 6 6 5 3 2 2 2 2 2 1 1 1 1 2 2 2 2 2 2 2 2 2 1 1
0 0 0 0 0 0 0 0 1 2 2 2 1 2 2 3 2 2 2 3 3 4 5 7 8 8 7 5 4 3 3 3 2 2 1 1 1 1 2 2 3 3 3 3 3 3 2 2 2
0 0 0 0 0 0 0 1 2 3 3 2 2 2 3 3 2 3 3 3 4 5 7 9 10 9 7 5 5 4 4 3 3 2 2 2 2 2 2 2 3 4 4 4 4 4 4 4 4
0 0 0 0 0 0 0 1 3 5 4 2 2 3 3 2 3 3 3 4 4 5 7 10 10 9 6 5 5 5 4 4 3 2 2 2 2 2 2 2 3 3 4 4 5 5 5 5 5
Wind_Speed
8 6 3 1 2 4 2 1 3 5 5 7 10 10 9 7 5 6 3 7 8 6 4 7 10 10 10 10 11 11 10 11 12 12 12 13 14 15 15 15 16 17 16 16 16 16 17 17 17
5 4 2 1 4 3 1 2 6 7 8 10 10 11 9 8 7 8 5 7 8 7 5 7 11 10 11 10 10 11 11 11 12 12 12 13 14 15 16 16 16 17 17 16 16 16 16 16 16
4 3 0 2 2 2 3 3 7 8 8 7 6 6 6 6 7 5 7 10 8 6 5 7 11 11 11 10 10 11 12 11 12 12 12 13 14 15 16 16 17 17 17 17 16 16 16 16 15
1 1 2 3 2 2 4 4 7 9 8 7 8 7 5 5 6 8 11 11 9 6 5 7 11 11 11 11 11 11 12 12 12 12 12 13 14 15 16 16 16 16 16 16 15 15 15 14 14
1 2 3 2 1 2 4 7 8 7 5 7 10 8 5 4 12 13 12 11 10 6 5 7 11 11 11 10 11 11 11 12 12 12 13 13 14 15 16 16 16 16 16 15 14 14 13 12 12
1 2 2 1 2 3 4 7 8 11 10 10 11 8 4 6 12 12 11 9 9 8 6 6 11 11 11 10 10 10 11 11 11 12 13 13 14 15 14 15 15 15 14 14 13 12 11 11 10
2 1 2 3 3 4 6 7 8 10 9 7 9 8 4 5 9 11 10 9 8 7 6 4 5 7 10 11 10 10 10 10 11 12 12 13 13 13 13 14 13 13 12 12 11 10 9 9 8
3 2 0 1 4 4 6 6 7 10 8 9 7 8 6 7 9 10 10 8 7 6 5 4 4 3 4 5 9 10 9 10 11 11 12 12 12 12 12 11 11 11 10 10 9 9 8 7 7
3 2 1 3 4 4 7 8 6 7 9 6 6 7 9 12 12 11 9 7 6 5 4 4 4 4 4 4 7 7 9 9 9 9 11 9 5 5 6 9 10 10 9 8 8 7 7 6 5
5 3 4 4 5 6 8 9 7 7 9 8 9 9 12 12 12 11 10 8 6 5 4 3 4 4 4 4 3 2 3 3 3 3 4 3 3 3 5 8 9 8 8 7 6 6 5 3 2
4 5 2 2 5 8 7 7 6 10 7 10 14 13 11 11 10 10 9 8 8 7 6 4 4 4 4 3 3 2 2 2 2 3 3 3 2 2 2 2 3 3 4 3 3 3 2 2 1
2 3 3 3 4 7 8 7 6 8 9 13 15 15 12 11 10 10 9 8 7 7 6 5 5 4 4 4 3 3 2 2 2 2 3 3 2 2 2 1 1 1 1 2 1 1 2 2 2
2 0 1 4 5 7 8 7 8 8 12 14 14 13 11 11 9 7 8 8 7 7 6 5 5 5 4 4 3 3 3 2 2 2 2 3 3 2 2 1 1 1 1 2 2 2 2 2 2
1 0 1 3 5 5 9 7 8 9 13 15 14 11 10 11 10 8 8 7 7 7 6 5 6 5 5 4 3 3 3 3 2 2 3 3 3 2 2 2 2 2 2 2 2 3 2 2 2
2 3 2 1 3 4 8 4 7 12 14 14 13 11 10 9 10 10 10 8 8 7 6 6 6 5 5 4 4 3 2 2 2 2 2 3 3 2 2 2 1 1 2 2 2 2 1 2 2
4 3 1 3 2 3 7 4 6 12 14 12 12 11 9 8 10 10 10 8 8 8 7 6 6 5 4 4 3 2 2 2 2 2 2 2 2 2 2 2 1 2 2 2 2 2 1 1 1
3 0 3 4 3 3 4 5 7 10 13 12 11 11 10 9 8 9 10 9 9 8 7 6 5 5 4 4 3 2 2 2 2 2 2 2 2 2 2 1 1 1 2 2 2 2 2 2 1
3 2 3 4 4 3 3 3 6 10 12 12 11 11 11 11 10 10 10 9 9 8 7 6 6 5 4 3 3 2 1 1 1 1 2 2 2 2 2 1 1 2 2 1 1 2 1 2 2
4 3 5 6 3 3 3 3 6 9 9 10 9 10 11 11 10 9 10 10 8 7 7 7 6 5 4 3 2 2 1 1 1 1 2 2 2 2 2 1 1 2 2 2 2 2 1 1 1
4 3 5 5 0 3 3 2 4 7 10 12 12 11 11 10 9 10 9 9 9 8 8 7 7 6 5 3 3 2 2 1 2 1 1 2 2 2 3 2 2 2 2 2 2 2 1 1 1
3 4 5 3 1 3 4 1 3 3 3 5 8 10 11 13 13 12 11 10 9 9 9 8 7 6 5 4 3 2 2 1 1 0 1 1 2 2 2 2 2 2 2 2 2 2 3 1 0
4 6 4 2 2 1 2 1 6 3 3 5 6 8 10 12 11 11 11 11 11 10 8 7 7 6 5 5 4 4 3 2 2 2 1 1 1 2 2 2 2 2 1 1 1 1 2 2 1
5 3 1 2 3 2 2 2 7 1 3 6 7 9 11 11 12 12 12 12 11 10 9 7 7 6 5 5 5 4 3 2 1 1 1 1 1 1 2 2 2 2 1 1 1 1 1 2 2
3 4 6 5 5 1 4 3 6 4 8 7 7 8 10 10 11 11 10 9 8 8 8 8 8 6 6 5 5 5 4 3 3 2 2 1 0 0 1 2 1 2 1 2 1 1 1 1 2
3 6 4 5 4 4 3 2 8 7 7 9 9 10 11 10 10 10 10 10 10 10 9 8 8 7 6 6 5 5 5 4 4 4 3 2 1 1 1 1 1 1 1 2 2 1 1 1 1
3 8 7 4 4 4 3 3 7 5 3 5 7 8 9 10 10 11 12 12 11 11 10 9 9 7 7 7 6 5 5 4 3 4 3 3 2 2 2 2 2 2 2 2 2 1 1 1 1
2 3 8 7 2 0 3 4 6 3 3 3 4 6 7 8 9 9 10 10 10 10 10 10 10 8 8 7 6 4 5 4 4 4 3 2 2 2 2 2 2 2 2 2 2 1 1 1 1
4 5 5 6 4 1 2 3 4 2 1 3 3 4 5 7 8 8 8 9 8 8 8 8 9 9 8 7 6 6 5 5 4 4 3 3 3 2 2 2 2 2 2 2 2 1 1 1 1
1 2 4 4 6 6 3 6 6 7 5 5 3 3 4 6 7 8 7 8 8 8 8 8 8 8 7 6 5 5 4 4 4 3 4 3 3 3 3 3 3 2 2 2 2 2 1 1 1
4 4 6 5 3 4 5 7 4 4 4 6 5 4 4 5 6 7 7 7 6 6 7 7 7 7 7 6 5 4 4 3 3 3 3 3 3 2 3 2 2 2 2 2 2 3 2 2 2
Wind_Direction
172 167 168 209 50 52 70 63 94 74 62 64 72 81 78 66 93 127 160 141 134 135 132 120 111 105 101 98 94 92 90 90 95 100 103 105 113 118 120 122 123 121 119 120 121 125 127 126 127
168 173 196 44 71 73 55 107 86 87 115 106 83 83 79 72 89 116 131 142 136 134 128 120 115 109 103 99 98 96 94 92 94 99 103 107 111 115 118 121 120 119 117 118 120 123 124 122 123
188 205 129 52 78 139 140 119 107 102 103 94 87 69 75 102 111 128 149 142 129 125 127 126 118 112 106 102 98 98 98 97 99 101 104 108 112 115 118 120 121 120 119 119 120 122 122 122 122
177 119 34 60 89 167 143 135 107 98 81 78 95 75 67 108 122 132 136 133 125 125 132 131 121 116 111 106 100 101 101 101 102 105 106 111 117 119 120 120 120 121 121 123 123 123 123 124 124
133 79 42 33 80 113 124 120 117 103 87 97 101 99 84 82 118 128 133 135 132 132 133 133 123 121 117 112 106 105 106 106 108 110 109 111 116 120 120 121 123 123 124 126 126 125 127 129 129
55 78 71 58 98 105 118 117 102 97 105 109 109 108 108 125 129 137 138 137 136 137 139 132 130 127 122 117 114 110 110 110 111 115 116 116 118 119 122 125 126 127 127 129 130 131 133 135 134
123 102 161 142 114 107 119 114 105 114 119 121 125 107 124 139 144 141 137 133 132 134 136 137 142 134 129 125 122 117 113 110 113 121 123 121 122 124 125 128 127 129 130 133 136 138 139 140 139
169 123 136 132 123 116 121 103 115 119 113 124 121 124 149 162 138 130 125 125 126 128 136 139 141 139 136 130 130 128 122 117 117 124 127 126 125 127 128 128 132 135 138 141 144 145 145 145 146
137 82 172 178 140 137 127 108 103 95 105 109 105 125 145 141 130 125 119 117 126 131 141 145 144 146 144 136 135 133 131 127 122 120 123 121 114 122 130 136 141 144 148 152 153 156 155 155 160
138 151 203 190 155 140 130 129 128 103 101 96 97 110 128 132 134 134 136 141 145 150 155 155 148 150 152 144 133 123 123 119 113 109 116 113 119 131 137 144 153 157 161 163 168 173 168 166 166
150 170 182 153 150 134 124 125 125 123 127 141 140 142 141 137 138 141 144 147 153 156 154 155 150 146 143 135 135 123 112 110 110 116 120 119 114 121 121 127 150 161 169 174 179 186 181 175 167
139 195 172 170 146 130 134 130 124 134 157 155 148 147 145 144 146 150 147 147 150 147 149 150 145 135 135 134 137 135 129 126 123 131 133 126 119 123 138 144 158 166 174 180 177 173 185 185 179
98 189 156 160 145 142 133 128 125 131 140 143 142 144 149 151 151 150 145 142 138 136 137 141 132 131 135 135 144 138 143 150 148 133 131 130 134 145 156 167 172 180 171 167 166 179 178 178 175
169 316 167 143 137 136 127 127 117 143 141 142 147 153 157 156 152 144 141 141 140 141 144 143 136 136 131 131 133 134 145 143 132 138 148 144 143 146 147 150 161 169 172 165 164 173 168 162 157
46 34 20 116 122 137 118 111 147 154 148 149 154 156 156 156 151 152 156 154 150 149 148 147 144 138 134 134 138 132 144 143 137 149 149 148 147 153 146 138 154 185 169 152 143 143 138 155 160
27 36 358 263 150 157 119 163 179 160 153 156 161 160 156 157 157 157 156 153 151 149 149 157 147 138 138 139 141 135 144 144 149 152 146 154 151 147 137 144 181 184 158 145 139 133 138 157 170
24 301 259 274 203 149 126 177 181 167 159 162 164 164 161 159 160 160 159 155 153 154 154 155 144 143 144 139 137 133 132 140 153 150 153 161 153 143 136 145 164 143 131 133 155 147 155 166 184
251 245 262 253 233 126 117 171 174 173 164 167 166 165 164 166 171 167 162 158 155 156 153 151 148 151 144 130 115 104 99 124 148 157 165 158 159 148 138 140 148 133 122 124 138 149 154 173 182
227 252 261 260 218 126 146 164 185 180 166 167 169 169 172 175 172 164 164 160 154 153 151 152 151 158 147 137 139 134 156 170 182 189 177 169 163 149 143 135 142 143 145 163 161 152 148 163 142
231 252 272 288 283 125 143 198 205 186 184 179 176 177 177 168 167 170 168 166 164 164 162 159 162 164 162 161 162 159 156 174 181 188 168 166 156 156 157 146 154 156 145 145 156 149 149 180 146
262 215 234 231 20 55 97 344 257 227 179 174 176 175 177 175 173 173 172 173 169 172 172 170 170 166 166 157 138 119 79 46 50 77 170 188 157 153 148 145 152 154 155 175 187 163 158 176 239
250 241 230 185 100 324 101 250 272 226 206 187 186 184 184 181 177 176 175 176 177 178 173 167 166 164 165 157 152 152 156 171 199 187 178 192 168 159 158 148 152 148 149 166 184 153 151 148 187
221 231 112 117 115 55 11 139 279 218 207 210 198 191 188 182 179 178 178 178 176 172 166 162 158 160 163 162 166 164 169 182 178 148 141 164 171 163 157 148 146 141 147 157 151 132 144 158 162
171 57 39 51 70 32 244 171 261 223 206 203 197 189 184 178 177 177 176 170 169 170 166 162 159 166 168 166 167 169 171 171 157 156 159 173 169 170 147 141 138 144 146 154 164 161 153 160 157
89 84 33 4 14 257 253 187 246 237 204 192 189 188 186 176 172 172 171 172 174 173 171 167 166 171 173 167 170 171 168 166 166 169 172 168 166 189 209 167 150 148 159 161 160 155 162 170 168
210 139 157 186 213 273 312 239 260 265 198 176 180 175 175 173 172 174 177 176 177 176 171 168 170 173 174 175 180 176 170 171 174 173 170 176 188 200 197 181 177 177 176 174 163 158 188 156 170
178 174 167 139 157 199 291 296 316 13 66 104 137 145 160 167 166 168 170 172 174 172 173 174 173 174 178 181 179 179 177 175 174 176 176 182 195 197 192 189 185 186 178 177 163 165 198 175 179
150 156 99 114 141 216 293 274 241 253 120 99 110 141 156 158 157 158 165 167 168 172 172 171 172 178 183 183 184 185 187 184 179 176 180 185 193 195 181 185 187 191 188 182 166 171 192 169 215
60 82 102 118 149 152 206 261 229 199 176 152 140 119 143 153 157 153 156 159 160 163 163 167 171 175 181 185 186 187 187 188 181 185 195 192 190 189 194 196 190 190 189 184 174 192 184 188 224
171 160 135 140 210 163 166 262 272 167 143 137 126 116 110 128 140 149 150 145 152 164 166 169 171 175 182 181 175 178 182 187 189 197 201 194 193 196 199 192 186 184 186 188 190 208 208 204 221